Preview of NWS' New Version of Forecast
This preview is not operational and should not be used for support decisions.

Regional Weather Roundup (RWR)

Issued by Gray - Portland, ME (GYX)

                            
000
ASUS41 KGYX 240805
RWRGYX
WEATHER ROUNDUP FOR MAINE AND NEW HAMPSHIRE
NATIONAL WEATHER SERVICE GRAY ME
400 AM EDT MON JUN 24 2019

MEZ002-005-006-010-012-015-018-020-021-024-026-027-029-240900-
MAINE
  
CITY           SKY/WX    TMP DP  RH WIND       PRES   REMARKS
PORTLAND       FAIR      60  47  61 W7        29.77S                  
SANFORD        FAIR      50  48  93 W6        29.79R                  
BAR HARBOR     FAIR      49  49 100 NW3       29.77S FOG              
WISCASSET      FAIR      53  47  79 CALM      29.78R                  
ROCKLAND       FAIR      53  51  93 N3        29.76S                  
FRYEBURG       FAIR      50  48  93 CALM      29.80R                  
LEWISTONAUBURN FAIR      54  49  83 N3        29.79R                  
AUGUSTA        FAIR      60  43  53 CALM      29.79R                  
WATERVILLE     FAIR      54  45  71 CALM      29.77R                  
BANGOR         FAIR      50  48  93 CALM      29.78S                  
GREENVILLE       N/A     51  39  63 N7        29.79R                  
MILLINOCKET    FAIR      47  42  83 CALM      29.80R                  
HOULTON        FAIR      40  37  89 CALM      29.76R                  
PRESQUE ISLE   FAIR      49  38  65 NW5       29.78R                  
FRENCHVILLE    FAIR      48  36  63 NW9       29.77R                  
CARIBOU        FAIR      47  37  68 W6        29.76R                  
$$

NHZ002-005-008-009-011-012-014-240900-
NEW HAMPSHIRE
  
CITY           SKY/WX    TMP DP  RH WIND       PRES   REMARKS
PORTSMOUTH     CLEAR     63  48  58 W5        29.77R                  
ROCHESTER      FAIR      59  47  64 CALM      29.79R                  
NASHUA         FAIR      60  56  86 NW5       29.81S                  
MANCHESTER     FAIR      62  53  72 CALM      29.80R                  
CONCORD        FAIR      51  49  92 CALM      29.82R                  
LACONIA        FAIR      57  50  77 CALM      29.82R                  
PLYMOUTH       FAIR      52  49  90 CALM      29.82R                  
BERLIN         FAIR      44  41  89 CALM      29.84R                  
WHITEFIELD     FAIR      44  41  89 CALM      29.84R                  
JAFFREY        FAIR      56  52  86 CALM      29.85F                  
KEENE          FAIR      54  53  97 CALM      29.84S                  
LEBANON        FAIR      51  47  86 S3        29.83R                  
MT WASHINGTON  PTCLDY    43  28  56 N33G45      N/A                   
$$

VTZ005-007-008-240900-
VERMONT
  
CITY           SKY/WX    TMP DP  RH WIND       PRES   REMARKS
ST JOHNSBURY     N/A     50  49  96 MISG      29.83R                  
MONTPELIER     FAIR      55  49  80 S5        29.88S                  
BURLINGTON     FAIR      57  52  83 CALM      29.84R                  
$$

MAZ007-012-024-CTZ003-RIZ002-NYZ038-NYZ072-240900-
SOUTHERN NEW ENGLAND AND NY
  
CITY           SKY/WX    TMP DP  RH WIND       PRES   REMARKS
BOSTON         FAIR      71  52  50 NW9       29.79S                  
WORCESTER      FAIR      62  51  67 W12       29.85S                  
NANTUCKET      FAIR      62  57  83 W9        29.78F                  
PROVIDENCE     FAIR      67  60  78 W6        29.81S                  
HARTFORD       FAIR      64  49  57 SE3       29.84S                  
ALBANY         FAIR      59  50  72 CALM      29.87R                  
NEW YORK CITY  FAIR      72  56  57 NW6       29.86S                  
$$

ANZ081-ANZ082-ANZ150-NHZ014-MEZ023>029-240900-
COASTAL MARINE OBSERVATIONS
  
STATION/POSITION TIME  TEMP    WIND        PRES    WAVE
                       AIR SEA DIR/SP/G            HT/PER
                 (UTC) (F)     (DEG/KT/KT) (MB)    (FT/S)
ISLE OF SHOALS   0700   66     290/ 14/ 14 1007.3R
JEFFREYS LEDGE   0738      59                N/A     1/ 3
$$

.............KEY..............
   WCI - WIND CHILL
   TC  - TEMPERATURE IN CELSIUS
   VSB - VISIBILITY IN MILES
   HX  - HEAT INDEX
   FAIR- INDICATES FEW OR NO CLOUDS BELOW 12,000 FT, WITH NO 
         SIGNIFICANT WEATHER AND/OR OBSTRUCTIONS TO VISIBILITY.